Location: Broughton
(51.0833°N, 1.5500°W)
Time: 04:34:34
(UTC+00:00)

Daily predictions for brighter satellites

Satellite Brightness Start Highest point End
(mag) Time Altitude Azimuth Time Altitude Azimuth Time Altitude Azimuth
Cosmos 2322 Rocket 4.5 02:20:17 18° NNE 02:20:17 18° NNE 02:21:45 10° NNE
USA 234 4.4 02:10:59 10° E 02:14:54 37° ENE 02:14:54 37° ENE
CENTAUR R/B 4.1 02:26:11 38° ESE 02:26:11 38° ESE 02:31:05 10° SE
Cosmos 2360 Rocket 4.3 02:26:15 22° NNE 02:26:15 22° NNE 02:28:09 10° NNE
COSMOS 2428 4.4 02:36:17 29° NE 02:36:17 29° NE 02:39:05 10° NE
ATLAS 2AS CENTAUR R/B 3.2 02:55:13 63° SE 02:55:16 63° SE 03:03:10 10° NE
COSMOS 2455 3.9 03:01:33 38° NNE 03:01:33 38° NNE 03:05:21 10° NNE
Cosmos 2297 4.5 03:12:16 49° NE 03:12:40 50° NE 03:18:13 10° SE
Resurs 1-4 Rocket 4.3 03:08:40 10° N 03:09:48 16° N 03:09:48 16° N
USA 267 4.0 03:17:55 10° ENE 03:24:04 42° SE 03:25:15 38° SSE
Cosmos 2333 Rocket 2.9 03:28:17 45° N 03:28:17 45° N 03:32:22 10° NNE
Cosmos 2219 Rocket 3.0 03:32:08 43° N 03:32:08 43° N 03:36:04 10° NNE
ADEOS II 3.5 03:26:29 10° N 03:29:04 29° N 03:29:04 29° N
SL-16 R/B 4.2 03:35:53 17° NNW 03:35:53 17° NNW 03:38:37 10° N
Cosmos 1726 4.5 03:35:42 10° NNE 03:38:41 23° ENE 03:41:39 10° ESE
RESURS DK-1 4.0 03:42:46 32° ESE 03:42:46 32° ESE 03:46:17 10° NE
BREEZE-M R/B 3.7 03:44:04 77° SSE 03:44:04 77° SSE 03:52:42 10° E
Cosmos 2074 Rocket 4.1 03:42:47 37° S 03:45:20 72° E 03:51:32 10° NNE
Cosmos 2237 Rocket 2.1 03:48:00 83° SSE 03:48:09 85° ESE 03:53:53 10° NNE
Cosmos 407 Rocket 3.5 03:50:38 75° NE 03:50:38 75° NE 03:55:22 10° NNE
IDEFIX/ARIANE 42P 2.8 03:48:34 10° NNE 03:53:48 65° ESE 03:55:33 41° SSE
Cosmos 2344 4.4 03:46:12 16° NW 03:54:14 80° NE 04:07:11 10° SE
Cosmos 1190 Rocket 3.9 03:54:21 82° SE 03:54:30 83° ESE 03:59:48 10° NNE
Cosmos 2369 Rocket 3.6 03:52:28 10° NNW 03:57:39 36° NE 04:02:47 10° ESE
USA 234 3.1 03:53:41 10° ESE 04:00:15 83° SSW 04:02:15 49° WNW
Cosmos 2322 Rocket 4.2 04:02:06 15° NNW 04:02:06 15° NNW 04:05:05 10° N
Gblst 52 Del rocket 4.2 04:05:00 57° SSW 04:05:00 57° SSW 04:10:23 10° SE
NOSS 3-4 (A) 3.3 04:04:28 60° SW 04:05:40 85° NW 04:12:14 10° NE
NOSS 3-4 (C) 3.3 04:04:32 60° SW 04:05:47 86° NW 04:12:21 10° NE
Cosmos 1980 3.5 04:06:22 68° W 04:06:44 71° WNW 04:12:24 10° NNE
ATLAS 3B R/B 3.6 04:09:16 30° SSW 04:09:16 30° SSW 04:13:08 10° S
Meteor 1-21 4.2 04:07:13 60° WNW 04:07:13 60° WNW 04:12:38 10° N
Cosmos 2360 Rocket 3.8 04:08:01 20° NNW 04:08:01 20° NNW 04:11:40 10° NNE
CZ-2D R/B 4.4 04:05:38 10° NNW 04:06:04 11° NNW 04:06:04 11° NNW
Cosmos 614 Rocket 3.8 04:10:33 69° WNW 04:10:36 69° WNW 04:15:49 10° NNE
Cosmos 2228 4.3 04:06:53 10° N 04:13:22 28° SSE 04:15:24 10° SSE
Cosmos 1943 Rocket 3.0 04:06:44 10° NNW 04:12:16 49° NE 04:17:46 10° SE
CENTAUR R/B 3.5 04:13:30 39° SW 04:13:30 39° SW 04:20:46 10° S
CBERS 1 LM4 rocket 4.3 04:08:17 10° NNE 04:13:19 69° WNW 04:13:22 69° WNW
GP-B 4.5 04:12:05 10° SSE 04:16:12 40° E 04:20:22 10° NNE
COSMOS 2428 3.6 04:18:18 33° NW 04:18:18 33° NW 04:23:15 10° NNE
Cosmos 1140 Rocket 3.3 04:18:23 55° SW 04:19:31 81° WNW 04:24:42 10° NNE
ARIANE 5 R/B 4.1 04:15:50 10° N 04:17:59 20° NNW 04:17:59 20° NNW
Cosmos 1707 3.6 04:22:20 39° N 04:22:20 39° N 04:24:56 10° N
ERBS 3.7 04:23:19 32° NNE 04:23:19 32° NNE 04:25:43 10° NE
Spot 2 4.0 04:18:45 10° NNE 04:22:17 61° NNW 04:22:17 61° NNW
NOSS 0 Rocket 4.1 04:22:59 47° W 04:24:13 54° NW 04:30:20 10° NNE
CZ-2C R/B 3.2 04:20:05 10° NNE 04:25:13 55° E 04:30:13 10° S
PSLV R/B 3.4 04:21:53 10° N 04:26:01 69° WNW 04:26:01 69° WNW
Cosmos 1954 Rocket 3.9 04:27:21 33° SSW 04:29:48 88° WNW 04:35:02 10° NNE
Meteor 1-31 Rocket 3.9 04:26:11 10° NNE 04:29:49 42° E 04:33:26 10° S
Cosmos 1726 Rocket 3.3 04:26:02 10° NNW 04:30:21 68° W 04:34:38 10° S
COSMO-SKYMED 1 4.0 04:27:18 10° SE 04:31:19 38° ENE 04:35:21 10° N
PAYLOAD A 4.1 04:26:34 10° NNE 04:31:29 73° ESE 04:36:33 10° S
Cosmos 468 Rocket 4.0 04:27:58 10° NNW 04:33:10 81° ENE 04:38:18 10° SSE
USA 32 4.3 04:34:49 44° W 04:35:02 44° WNW 04:40:05 10° N
Okean 1-7 Rocket 3.6 04:32:59 10° S 04:37:28 83° E 04:42:02 10° NNE
Meteor 2-10 3.9 04:32:48 10° NNW 04:38:02 79° W 04:43:27 10° S
SL-16 R/B 2.1 04:40:46 17° SSW 04:45:09 90° W 04:50:53 10° NNE
ADEOS 3.6 04:40:52 10° N 04:45:58 54° WNW 04:48:42 26° SW
COSMOS 2455 4.2 04:44:42 20° NW 04:46:29 23° NNW 04:51:14 10° NNE
ATLAS 2AS CENTAUR R/B 3.3 04:42:40 30° W 04:46:38 53° NNW 04:54:24 10° NE
Cosmos 2327 Rocket 4.4 04:41:48 10° SSW 04:47:53 59° WNW 04:53:57 10° N
SJ-6F 4.4 04:43:43 10° NNE 04:47:54 90° ENE 04:52:01 10° SSW
Cosmos 841 Rocket 4.2 04:43:57 10° NNW 04:49:10 55° ENE 04:54:19 10° SE
Cosmos 389 Rocket 4.4 04:51:40 18° NNW 04:51:40 18° NNW 04:52:52 10° N
Meteor 1-16 Rocket 4.2 04:45:15 10° NNW 04:50:25 52° W 04:55:38 10° S
Cosmos 192 4.5 04:50:02 10° NNW 04:55:01 77° ENE 04:59:59 10° SSE
Cosmos 2154 Rocket 3.9 04:49:42 10° SSW 04:55:50 62° WNW 05:02:02 10° N
Cosmos 2297 4.2 04:54:20 25° WNW 04:56:42 36° WSW 05:01:50 10° S
Meteor 1-4 Rocket 3.6 04:58:43 27° NW 04:58:43 27° NW 05:00:53 10° N
Cosmos 1570 Rocket 4.0 04:52:20 10° NNW 04:57:44 90° WSW 05:03:03 10° SSE
CZ-4B R/B 2.8 04:55:21 10° NNE 04:59:19 83° ESE 05:03:05 10° SSW
Cosmos 540 Rocket 4.2 04:55:01 10° NNW 05:00:08 55° ENE 05:05:11 10° SE
Meteor 1-24 Rocket 4.5 04:54:40 10° S 05:00:24 60° E 05:06:19 10° NNE
H-2A R/B 2.6 04:56:52 10° N 05:00:59 52° WNW 05:04:18 16° SW
Cosmos 2058 Rocket 3.2 04:58:39 10° NNW 05:02:56 49° W 05:07:13 10° SSW
Nadezhda 3 Rocket 4.3 05:01:12 10° NNW 05:07:07 42° W 05:12:59 10° SSW
Cosmos 1763 Rocket 3.4 05:01:58 10° NNW 05:07:09 71° WSW 05:12:12 10° SSE
Cosmos 1900 4.3 05:02:42 12° NW 05:07:19 82° NE 05:12:13 10° SE
USA 267 3.2 05:00:54 10° ENE 05:07:28 83° NNW 05:12:37 18° WSW
ADEOS II 4.0 05:08:17 10° NNW 05:10:00 12° NW 05:10:00 12° NW
Okean O Rocket 3.5 05:06:18 10° NNE 05:10:18 33° E 05:14:16 10° SSE
Cosmos 2333 Rocket 3.7 05:10:19 17° NW 05:12:07 19° NNW 05:16:10 10° NNE
Cosmos 1726 2.7 05:10:40 10° NNW 05:13:58 32° W 05:17:16 10° SSW
Cosmos 2208 Rocket 3.9 05:10:19 10° NNW 05:15:33 77° WSW 05:20:49 10° SSE
Cosmos 2219 Rocket 3.7 05:13:51 16° NW 05:15:39 18° NNW 05:19:26 10° N
Cosmos 1741 Rocket 4.0 05:11:11 10° SSW 05:16:31 87° WNW 05:21:53 10° NNE
KORONAS-FOTON 3.6 05:15:17 10° SSW 05:19:03 72° W 05:22:52 10° N
SKYMED 2 3.5 05:14:56 10° S 05:19:17 79° WSW 05:23:39 10° NNW
RESURS DK-1 3.0 05:18:42 23° W 05:20:34 36° NW 05:24:26 10° NNE
In-Cosmos 22 4.3 05:15:20 10° SSW 05:20:36 51° WNW 05:26:02 10° N
MSX 4.1 05:16:00 10° N 05:21:23 43° WNW 05:26:45 10° SW
Cosmos 1892 Rocket 4.1 05:19:29 10° SW 05:23:35 37° WNW 05:27:41 10° N
SL-14 R/B 4.0 05:21:00 10° S 05:24:49 55° E 05:28:38 10° NNE
Cosmos 2341 Rocket 4.0 05:22:53 10° SSW 05:29:00 59° WNW 05:35:10 10° N
ASTEX 1 3.8 05:25:07 10° SSE 05:29:57 67° E 05:34:51 10° N
Cosmos 2237 Rocket 3.4 05:29:51 17° W 05:32:56 25° NW 05:37:39 10° NNE
IDEFIX/ARIANE 42P 3.7 05:28:51 10° N 05:32:59 24° WNW 05:36:20 13° WSW
USA 116 3.2 05:29:37 10° SSE 05:33:04 82° WSW 05:36:16 10° NNW
Helios 1A Rocket 3.6 05:30:14 10° NNE 05:34:23 61° ESE 05:38:29 10° S
Cosmos 1959 Rocket 4.4 05:30:05 10° SSW 05:36:14 82° W 05:42:30 10° N
Cosmos 1814 Rocket 4.0 05:30:54 10° NNW 05:36:15 71° WSW 05:41:34 10° SSE
Cosmos 1437 Rocket 3.5 05:34:12 10° SW 05:37:34 30° WNW 05:40:59 10° N
Cosmos 1908 4.1 05:35:00 10° NNW 05:38:17 27° W 05:41:32 10° SSW
Cosmos 1656 Rocket 3.8 05:33:27 10° NNW 05:38:57 78° ENE 05:44:21 10° SE
SL-8 Rocket 3.9 05:33:52 10° SSW 05:40:00 66° WNW 05:46:09 10° N
Cosmos 2369 Rocket 2.4 05:36:28 10° NW 05:41:52 50° WSW 05:47:14 10° S
NOSS 2 (A) 4.4 05:41:01 18° WNW 05:42:36 43° SW 05:44:51 10° SSE
USA 234 4.1 05:38:09 10° SSE 05:43:52 32° SW 05:49:36 10° WNW
CZ-4B DEB 4.2 05:41:24 10° NNE 05:46:55 86° WNW 05:52:22 10° SSW
Cosmos 1455 4.2 05:46:10 10° N 05:49:35 31° ENE 05:52:57 10° SE
Cosmos 1812 Rocket 3.7 05:46:39 10° NNW 05:51:00 52° W 05:55:19 10° S
PSLV R/B 4.0 05:47:48 10° N 05:51:20 44° WNW 05:54:51 10° SW
Lacrosse 4 Rocket 4.1 05:50:53 10° NNE 05:51:24 10° NNE 05:51:56 10° NNE
Cosmos 2366 rocket 4.0 05:45:10 10° SSW 05:51:30 69° WNW 05:57:52 10° N
METEOR-M 4.3 05:47:03 10° NNE 05:52:27 83° ESE 05:57:47 10° SSW
USA 229 DEB 4.4 05:45:41 10° NW 05:52:44 59° NE 06:00:07 10° ESE
USA 229 4.4 05:45:48 10° NW 05:52:49 58° NE 06:00:10 10° ESE
GP-B 4.1 05:49:56 10° SW 05:53:40 26° W 05:57:24 10° NNW
Cosmos 1674 3.6 05:51:37 10° SW 05:54:47 26° WNW 05:57:59 10° NNW
Cosmos 1943 Rocket 2.8 05:50:46 10° NW 05:55:53 36° WSW 06:00:59 10° S
Cosmos 1626 Rocket 3.8 05:51:45 10° SSW 05:55:54 46° WNW 06:00:07 10° N
MOS 1-B 4.4 05:50:58 10° NNE 05:56:46 67° WNW 06:02:31 10° SSW
CZ-4B R/B 3.3 05:51:35 10° NNE 05:56:56 80° ESE 06:02:14 10° SSW
NOSS 3-4 (A) 4.4 05:51:55 11° W 05:57:26 35° NNW 06:03:33 10° NE
NOSS 3-4 (C) 4.4 05:52:00 11° W 05:57:32 35° NNW 06:03:40 10° NE
SJ-12 3.9 05:54:49 10° N 05:58:54 60° WNW 06:02:57 10° SSW
ERBS 3.6 05:56:27 10° WNW 05:59:28 29° N 06:02:30 10° ENE
Meteor 2-5 Rocket 4.2 05:55:14 10° SW 06:00:46 42° WNW 06:06:25 10° N
FENGYUN 3A 3.7 05:57:11 10° NNE 06:02:40 88° WNW 06:08:07 10° SSW
Cosmos 1980 Rocket 4.5 05:59:53 10° N 06:02:51 14° NNE 06:05:48 10° NE
CZ-2C R/B 3.4 05:58:49 10° N 06:03:09 28° WNW 06:07:26 10° WSW
Meteor 1-31 Rocket 4.0 06:01:08 10° NNW 06:04:01 21° WNW 06:06:53 10° WSW
Cosmos 1626 2.1 06:00:43 10° SSW 06:04:23 64° WNW 06:08:06 10° N
Cosmos 1825 Rocket 3.8 06:02:06 10° S 06:06:24 77° E 06:10:45 10° NNE
COSMO-SKYMED 1 3.5 06:03:49 10° SSW 06:07:34 28° W 06:11:20 10° NW
PAYLOAD B 4.2 06:02:48 10° NNE 06:08:21 68° WNW 06:13:49 10° SSW
NOSS 3-1 (C) 4.4 06:03:41 10° NW 06:10:49 66° NE 06:19:06 10° ESE
Cosmos 1953 Rocket 4.2 06:08:58 10° S 06:13:22 64° E 06:17:46 10° NNE
ADEOS Rocket 4.3 06:08:46 10° SE 06:16:02 61° ENE 06:23:42 10° N
SeaSat 1 4.5 06:12:15 10° NE 06:16:46 35° ESE 06:21:15 10° S
